SVA327 OERK-HESH

Flight info

Callsign SVA327
Flight time N/A
Altitude 36000
Route IVONU2D IVONU M321 HLF DCT SH725 DCT SH761 DCT CF04L DCT FF04L DCT
Aircraft A320/M-SDE3FGHIRWY/LB1

Departure

Time N/A
Airport King Khalid International Airport (OERK)

Arrival

Time 2026-04-29 21:40
Airport Sharm El Sheikh International Airport (HESH)
Time Latitude Longitude Altitude Speed Heading
2026-04-29 21:29 27.59268 34.62727 11016 ft 336 kts 297°
2026-04-29 21:29 27.60290 34.60435 10895 ft 321 kts 297°
2026-04-29 21:29 27.61263 34.58227 10781 ft 308 kts 296°
2026-04-29 21:29 27.62178 34.56131 10644 ft 296 kts 296°
2026-04-29 21:30 27.63071 34.54074 10467 ft 289 kts 296°
2026-04-29 21:30 27.63956 34.52033 10366 ft 289 kts 296°
2026-04-29 21:30 27.64851 34.49967 10242 ft 289 kts 296°
2026-04-29 21:30 27.65737 34.47931 10118 ft 289 kts 296°
2026-04-29 21:31 27.66623 34.45900 9991 ft 289 kts 296°
2026-04-29 21:31 27.67483 34.43925 9862 ft 270 kts 296°
2026-04-29 21:31 27.68281 34.42090 9740 ft 250 kts 296°
2026-04-29 21:31 27.69005 34.40420 9590 ft 232 kts 296°
2026-04-29 21:32 27.69694 34.38828 9271 ft 221 kts 296°
2026-04-29 21:32 27.70373 34.37303 8856 ft 215 kts 301°
2026-04-29 21:32 27.71242 34.35942 8386 ft 213 kts 312°
2026-04-29 21:32 27.72252 34.34723 7903 ft 212 kts 313°
2026-04-29 21:33 27.73257 34.33504 7432 ft 212 kts 313°
2026-04-29 21:33 27.74257 34.32287 6968 ft 211 kts 313°
2026-04-29 21:33 27.75253 34.31072 6507 ft 211 kts 313°
2026-04-29 21:33 27.76247 34.29858 6051 ft 210 kts 313°
2026-04-29 21:34 27.77230 34.28657 5615 ft 207 kts 313°
2026-04-29 21:34 27.78204 34.27465 5185 ft 205 kts 313°
2026-04-29 21:34 27.79155 34.26303 4934 ft 195 kts 313°
2026-04-29 21:34 27.80112 34.25288 4699 ft 185 kts 327°
2026-04-29 21:35 27.81251 34.24690 4396 ft 179 kts 346°
2026-04-29 21:35 27.82471 34.24549 4060 ft 177 kts
2026-04-29 21:35 27.83681 34.24868 3603 ft 181 kts 22°
2026-04-29 21:35 27.84710 34.25625 3290 ft 178 kts 41°
2026-04-29 21:36 27.85609 34.26563 3042 ft 174 kts 41°
2026-04-29 21:36 27.86497 34.27484 2806 ft 171 kts 41°
2026-04-29 21:36 27.87360 34.28381 2590 ft 166 kts 41°
2026-04-29 21:36 27.88186 34.29240 2373 ft 156 kts 41°
2026-04-29 21:37 27.88964 34.30050 2202 ft 148 kts 41°
2026-04-29 21:37 27.89713 34.30828 2006 ft 144 kts 41°
2026-04-29 21:37 27.90452 34.31597 1819 ft 144 kts 41°
2026-04-29 21:37 27.91183 34.32358 1638 ft 143 kts 40°
2026-04-29 21:38 27.91910 34.33115 1446 ft 142 kts 40°
2026-04-29 21:38 27.92638 34.33873 1280 ft 142 kts 40°
2026-04-29 21:38 27.93366 34.34631 1102 ft 142 kts 41°
2026-04-29 21:38 27.94093 34.35388 913 ft 142 kts 41°
2026-04-29 21:39 27.94809 34.36134 732 ft 141 kts 40°
2026-04-29 21:39 27.95529 34.36885 547 ft 141 kts 41°
2026-04-29 21:39 27.96253 34.37634 335 ft 140 kts 41°
2026-04-29 21:39 27.96957 34.38381 166 ft 138 kts 40°
2026-04-29 21:40 27.97596 34.39039 136 ft 92 kts 43°
2026-04-29 21:40 27.97826 34.39283 135 ft 17 kts 43°
2026-04-29 21:40 27.97912 34.39346 135 ft 11 kts 358°
2026-04-29 21:40 27.97977 34.39283 135 ft 14 kts 311°
2026-04-29 21:41 27.98050 34.39192 134 ft 17 kts 313°
2026-04-29 21:41 27.98074 34.39120 134 ft 7 kts 239°
2026-04-29 21:41 27.98036 34.39081 134 ft 7 kts 221°
2026-04-29 21:41 27.98031 34.39035 134 ft 6 kts 300°
2026-04-29 21:42 27.98056 34.39004 134 ft 0 kts 313°